Madisonville, KY

3:57 AM CST on December 13, 2017 (GMT -0600)
Madisonville

Weather History for K2I0 - December, 2012

Change the Weather History Date:

Sunday, December 9, 2012

  Actual Average (KOWB) Record (KOWB)
Temperature  
Mean Temperature 59 °F -  
Max Temperature 67 °F 49 °F 71 °F (1946)
Min Temperature 51 °F 29 °F 5 °F (1937)
Degree Days  
Heating Degree Days 6    
Growing Degree Days 9 (Base 50)    
Moisture  
Dew Point 58 °F    
Average Humidity 95    
Maximum Humidity 100    
Minimum Humidity 81    
Precipitation  
Precipitation 1.04 in - - ()
Sea Level Pressure  
Sea Level Pressure 29.84 in    
Wind  
Wind Speed 6 mph (SSW)    
Max Wind Speed 16 mph    
Max Gust Speed 24 mph    
Visibility 8 miles    
Events Rain    
Averages and records for this station are not official NWS values.
T = Trace of Precipitation, MM = Missing Value Source: NWS Daily Summary

Daily Weather History Graph

Daily Weather History Graph

Search for Another Location

Airport or City:

Trip Planner

Search our weather history database for the weather conditions in past years. The results will help you decide how hot, cold, wet, or windy it might be!

Date:

Astronomy

Dec. 09, 2012 Rise Set
Actual Time 6:52 AM CST 4:31 PM CST
Civil Twilight 6:23 AM CST 5:00 PM CST
Nautical Twilight 5:50 AM CST 5:33 PM CST
Astronomical Twilight 5:19 AM CST 6:05 PM CST
Moon 2:28 AM CST (12/9) 1:35 PM CST (12/9)
Length of Visible Light 10h 37m
Length of Day
9h 39m
Waning Crescent, 18% of the Moon is Illuminated
Dec 9
Waning Crescent
Dec 13
New
Dec 19
First Quarter
Dec 28
Full
Jan 4
Last Quarter

Hourly Weather History & Observations

Time (CST) Temp. Dew Point Humidity Pressure Visibility Wind Dir Wind Speed Gust Speed Precip Events Conditions
12:15 AM 51.8 °F 51.8 °F 100% 29.96 in 4.0 mi Calm Calm - N/A   Overcast
12:35 AM 51.6 °F 51.6 °F 100% 29.95 in 3.0 mi Calm Calm - N/A   Overcast
12:55 AM 51.8 °F 51.8 °F 100% 29.95 in 3.0 mi Calm Calm - N/A   Overcast
1:15 AM 51.8 °F 51.8 °F 100% 29.94 in 3.0 mi Calm Calm - N/A   Overcast
1:35 AM 52.0 °F 52.0 °F 100% 29.94 in 3.0 mi Calm Calm - N/A   Overcast
1:55 AM 52.3 °F 52.3 °F 100% 29.94 in 3.0 mi Calm Calm - N/A   Overcast
2:15 AM 52.5 °F 52.5 °F 100% 29.94 in 3.0 mi ENE 3.5 mph - N/A   Overcast
2:35 AM 52.9 °F 52.9 °F 100% 29.93 in 3.0 mi East 5.8 mph - N/A   Overcast
2:55 AM 52.9 °F 52.9 °F 100% 29.93 in 3.0 mi SE 4.6 mph - N/A   Overcast
3:15 AM 53.2 °F 53.2 °F 100% 29.91 in 4.0 mi Calm Calm - N/A   Overcast
3:35 AM 53.6 °F 53.6 °F 100% 29.91 in 4.0 mi Calm Calm - N/A   Overcast
3:55 AM 54.0 °F 54.0 °F 100% 29.91 in 4.0 mi SE 3.5 mph - N/A   Overcast
4:15 AM 54.3 °F 54.3 °F 100% 29.91 in 4.0 mi SSE 3.5 mph - N/A Rain Rain
4:35 AM 54.1 °F 54.1 °F 100% 29.91 in 1.8 mi Calm Calm - 0.10 in Rain Heavy Rain
4:55 AM 53.8 °F 53.8 °F 100% 29.92 in 2.0 mi Calm Calm - 0.19 in Rain Heavy Rain
5:15 AM 53.8 °F 53.8 °F 100% 29.88 in 1.8 mi SE 10.4 mph - 0.05 in Rain Rain
5:35 AM 54.5 °F 54.5 °F 100% 29.88 in 4.0 mi SSE 5.8 mph - 0.08 in Rain Rain
5:55 AM 56.5 °F 56.5 °F 100% 29.86 in 7.0 mi SSE 6.9 mph - 0.08 in Rain Rain
6:15 AM 58.1 °F 57.6 °F 98% 29.87 in 10.0 mi South 3.5 mph - N/A   Overcast
6:35 AM 58.3 °F 57.4 °F 97% 29.86 in 10.0 mi South 8.1 mph - 0.01 in   Overcast
6:55 AM 57.7 °F 57.2 °F 98% 29.87 in 10.0 mi South 3.5 mph - 0.01 in Rain Light Rain
7:15 AM 58.1 °F 58.1 °F 100% 29.91 in 3.0 mi SW 5.8 mph - 0.10 in Rain Rain
7:35 AM 58.3 °F 58.3 °F 100% 29.89 in 10.0 mi SSW 3.5 mph - 0.13 in Rain Light Rain
7:55 AM 58.1 °F 58.1 °F 100% 29.89 in 10.0 mi South 5.8 mph - 0.13 in   Scattered Clouds
8:15 AM 58.3 °F 58.3 °F 100% 29.88 in 10.0 mi South 8.1 mph - N/A   Mostly Cloudy
8:35 AM 58.8 °F 58.8 °F 100% 29.89 in 10.0 mi South 4.6 mph - N/A   Overcast
8:55 AM 59.2 °F 59.2 °F 100% 29.89 in 10.0 mi South 6.9 mph - N/A   Overcast
9:15 AM 59.5 °F 59.5 °F 100% 29.89 in 10.0 mi South 6.9 mph - N/A   Overcast
9:35 AM 59.9 °F 59.9 °F 100% 29.88 in 10.0 mi South 9.2 mph - N/A   Overcast
9:55 AM 61.2 °F 61.0 °F 99% 29.88 in 10.0 mi South 10.4 mph - N/A   Mostly Cloudy
10:35 AM 63.9 °F 62.6 °F 96% 29.87 in 10.0 mi SSW 12.7 mph - N/A   Scattered Clouds
10:55 AM 64.4 °F 63.0 °F 95% 29.86 in 10.0 mi SSW 11.5 mph - N/A   Scattered Clouds
11:15 AM 64.9 °F 63.0 °F 93% 29.86 in 10.0 mi SSW 9.2 mph - N/A   Scattered Clouds
11:35 AM 65.7 °F 62.8 °F 90% 29.85 in 10.0 mi SSW 6.9 mph - N/A   Scattered Clouds
11:55 AM 66.4 °F 62.4 °F 87% 29.85 in 10.0 mi SW 10.4 mph - N/A   Scattered Clouds
12:15 PM 66.4 °F 62.1 °F 86% 29.84 in 10.0 mi SW 12.7 mph 18.4 mph N/A   Mostly Cloudy
12:35 PM 66.2 °F 61.9 °F 86% 29.83 in 10.0 mi SW 11.5 mph 16.1 mph N/A   Overcast
12:55 PM 66.0 °F 61.7 °F 86% 29.84 in 10.0 mi SW 16.1 mph - N/A   Overcast
1:15 PM 65.5 °F 61.7 °F 88% 29.83 in 10.0 mi SW 13.8 mph 19.6 mph N/A   Overcast
1:35 PM 66.2 °F 62.1 °F 86% 29.81 in 10.0 mi SW 9.2 mph - N/A   Overcast
1:55 PM 66.4 °F 61.9 °F 85% 29.81 in 10.0 mi SSW 11.5 mph - N/A   Overcast
2:15 PM 67.1 °F 62.2 °F 84% 29.80 in 10.0 mi SSW 16.1 mph - N/A   Mostly Cloudy
2:35 PM 67.6 °F 62.1 °F 82% 29.80 in 10.0 mi SSW 11.5 mph - N/A   Scattered Clouds
2:55 PM 67.8 °F 61.7 °F 81% 29.80 in 10.0 mi SSW 11.5 mph - N/A   Scattered Clouds
3:15 PM 66.7 °F 61.2 °F 82% 29.80 in 10.0 mi SSW 11.5 mph 17.3 mph N/A   Overcast
3:35 PM 66.2 °F 61.7 °F 85% 29.80 in 10.0 mi SSW 9.2 mph 17.3 mph N/A   Overcast
3:55 PM 66.0 °F 61.9 °F 86% 29.78 in 10.0 mi SSW 12.7 mph - N/A   Overcast
4:15 PM 65.5 °F 61.9 °F 88% 29.78 in 10.0 mi SSW 9.2 mph - N/A Rain Rain
4:35 PM 64.4 °F 61.9 °F 92% 29.78 in 10.0 mi SSW 8.1 mph - 0.01 in   Mostly Cloudy
4:55 PM 63.5 °F 62.1 °F 95% 29.77 in 7.0 mi South 9.2 mph - 0.03 in Rain Light Rain
5:15 PM 63.1 °F 62.1 °F 96% 29.77 in 10.0 mi South 9.2 mph - N/A   Overcast
5:35 PM 63.1 °F 61.9 °F 96% 29.76 in 10.0 mi South 9.2 mph - N/A   Overcast
5:55 PM 63.5 °F 61.7 °F 94% 29.75 in 10.0 mi South 9.2 mph - N/A   Overcast
6:15 PM 64.4 °F 61.7 °F 91% 29.75 in 10.0 mi South 9.2 mph - N/A   Mostly Cloudy
6:35 PM 64.8 °F 61.9 °F 90% 29.74 in 10.0 mi SSW 10.4 mph - N/A   Mostly Cloudy
6:55 PM 65.1 °F 61.7 °F 89% 29.73 in 10.0 mi SSW 11.5 mph - N/A   Overcast
7:15 PM 65.5 °F 61.7 °F 88% 29.73 in 10.0 mi SSW 15.0 mph 18.4 mph N/A   Overcast
7:35 PM 66.0 °F 61.5 °F 85% 29.73 in 10.0 mi SSW 16.1 mph 21.9 mph N/A   Overcast
7:55 PM 64.9 °F 61.7 °F 89% 29.74 in 10.0 mi NW 10.4 mph - 0.02 in Rain Light Rain
8:15 PM 61.0 °F 60.4 °F 98% 29.76 in 2.0 mi WNW 13.8 mph 20.7 mph 0.37 in Rain Rain
8:35 PM 60.8 °F 60.1 °F 97% 29.76 in 10.0 mi West 12.7 mph 18.4 mph 0.48 in Rain Light Rain
8:55 PM 60.8 °F 60.1 °F 97% 29.77 in 10.0 mi West 10.4 mph - 0.48 in Rain Rain
9:15 PM 60.8 °F 60.1 °F 97% 29.77 in 10.0 mi West 9.2 mph - 0.03 in Rain Light Rain
9:35 PM 60.8 °F 59.9 °F 97% 29.76 in 10.0 mi West 10.4 mph - 0.03 in Rain Light Rain
9:55 PM 60.3 °F 59.5 °F 97% 29.77 in 7.0 mi WNW 9.2 mph - 0.06 in Rain Rain
10:15 PM 58.1 °F 56.8 °F 96% 29.79 in 10.0 mi NNW 10.4 mph 24.2 mph 0.01 in Rain Light Rain
10:35 PM 55.8 °F 55.4 °F 99% 29.77 in 5.0 mi North 10.4 mph - 0.03 in Rain Rain
10:55 PM 55.4 °F 54.7 °F 97% 29.78 in 7.0 mi NNW 11.5 mph - 0.04 in Rain Light Rain
11:15 PM 54.9 °F 54.0 °F 97% 29.78 in 7.0 mi NNW 11.5 mph - N/A Rain Light Rain
11:35 PM 54.5 °F 52.7 °F 94% 29.80 in 10.0 mi NNW 6.9 mph - N/A   Overcast
11:55 PM 54.0 °F 52.7 °F 95% 29.80 in 10.0 mi NNW 4.6 mph - N/A   Overcast